Location: Allison Elementary School
(34.0784°N, 117.7317°W)
Time: 02:47:07
(UTC+00:00)

CZ-2C R/B - Pass Details

Date: 15 November 2019
Orbit: 667 x 785 km, 98.1° (Epoch: 08 December)

Event Time Altitude Azimuth Distance (km) Brightness Sun altitude
Rises 11:24:07 0° 26° (NNE) 3,147 6.0 -37.1°
Reaches altitude 10° 11:26:45 10° 38° (NE) 2,201 5.2 -36.6°
Enters shadow 11:29:22 23° 67° (ENE) 1,474 4.4 -36.0°
Exits shadow 11:36:56 - 165° (SSE) 2,905 5.7 -34.5°
Sets 11:37:16 0° 166° (SSE) 3,027 5.7 -34.4°
